Weather History for Ingleside, TX

Change the Weather History Date:

Saturday, September 28, 2013

  Actual Average Record
Temperature  
Mean Temperature 86 °F -  
Max Temperature 91 °F - - ()
Min Temperature 81 °F - - ()
Cooling Degree Days 22    
Growing Degree Days 36 (Base 50)    
Moisture  
Dew Point 78 °F    
Average Humidity 77    
Maximum Humidity 90    
Minimum Humidity 60    
Precipitation  
Precipitation 0.00 in - - ()
Sea Level Pressure  
Sea Level Pressure 29.89 in    
Wind  
Wind Speed 13 mph (SSE)    
Max Wind Speed 18 mph    
Max Gust Speed 24 mph    
Visibility 10 miles    
Events      
T = Trace of Precipitation, MM = Missing Value Source: NWS Daily Summary

Daily Weather History Graph

Daily Weather History Graph

Search for Another Location

Airport:

Trip Planner

Search our weather history database for the weather conditions in past years. The results will help you decide how hot, cold, wet, or windy it might be!

Date:

Astronomy

Sep. 28, 2013 Rise Set
Actual Time 7:20 AM CDT 7:17 PM CDT
Civil Twilight 6:56 AM CDT 7:41 PM CDT
Nautical Twilight 6:29 AM CDT 8:08 PM CDT
Astronomical Twilight 6:02 AM CDT 8:35 PM CDT
Moon 1:34 AM CDT (9/28) 3:13 PM CDT (9/28)
Length of Visible Light 12h 44m
Length of Day
11h 57m
Waning Crescent, 36% of the Moon is Illuminated
Sep 28
Waning Crescent
Oct 4
New
Oct 11
First Quarter
Oct 18
Full
Oct 26
Last Quarter

Hourly Weather History & Observations

Time (CDT) Temp. Heat Index Dew Point Humidity Pressure Visibility Wind Dir Wind Speed Gust Speed Precip Events Conditions
12:15 AM 84.4 °F 98.9 °F 80.8 °F 89% 29.87 in 10.0 mi SE 11.5 mph 16.1 mph N/A   Mostly Cloudy
12:35 AM 84.0 °F 97.7 °F 80.6 °F 89% 29.87 in 10.0 mi SE 13.8 mph 20.7 mph N/A   Scattered Clouds
12:55 AM 84.0 °F 97.7 °F 80.4 °F 89% 29.87 in 10.0 mi SSE 12.7 mph 19.6 mph N/A   Scattered Clouds
1:15 AM 84.0 °F 98.1 °F 80.8 °F 90% 29.87 in 10.0 mi SSE 11.5 mph 19.6 mph N/A   Scattered Clouds
1:35 AM 84.0 °F 98.1 °F 80.8 °F 90% 29.87 in 10.0 mi SSE 12.7 mph 18.4 mph N/A   Scattered Clouds
1:55 AM 84.0 °F 98.1 °F 80.8 °F 90% 29.87 in 10.0 mi SSE 10.4 mph - N/A   Scattered Clouds
2:15 AM 84.2 °F 98.3 °F 80.8 °F 89% 29.87 in 10.0 mi SSE 13.8 mph 23.0 mph N/A   Scattered Clouds
2:35 AM 84.2 °F 97.8 °F 80.4 °F 88% 29.87 in 10.0 mi SSE 15.0 mph 21.9 mph N/A   Clear
2:55 AM 84.2 °F 98.3 °F 80.6 °F 89% 29.86 in 10.0 mi SSE 16.1 mph - N/A   Scattered Clouds
3:15 AM 84.2 °F 98.3 °F 80.6 °F 89% 29.86 in 10.0 mi SSE 13.8 mph 18.4 mph N/A   Scattered Clouds
3:35 AM 84.0 °F 97.3 °F 80.2 °F 88% 29.87 in 10.0 mi SSE 12.7 mph 18.4 mph N/A   Mostly Cloudy
3:55 AM 84.2 °F 97.4 °F 80.1 °F 87% 29.86 in 10.0 mi SSE 13.8 mph 19.6 mph N/A   Mostly Cloudy
4:15 AM 84.2 °F 97.8 °F 80.2 °F 88% 29.86 in 10.0 mi SSE 9.2 mph - N/A   Scattered Clouds
4:35 AM 83.8 °F 97.1 °F 80.2 °F 89% 29.86 in 10.0 mi SSE 12.7 mph 17.3 mph N/A   Scattered Clouds
4:55 AM 83.5 °F 93.3 °F 77.4 °F 82% 29.86 in 10.0 mi SSE 11.5 mph 17.3 mph N/A   Scattered Clouds
5:15 AM 83.5 °F 92.2 °F 76.5 °F 79% 29.86 in 10.0 mi SSE 9.2 mph - N/A   Scattered Clouds
5:35 AM 83.3 °F 93.5 °F 77.9 °F 84% 29.87 in 10.0 mi SSE 9.2 mph - N/A   Scattered Clouds
5:55 AM 83.3 °F 94.2 °F 78.6 °F 86% 29.87 in 10.0 mi SSE 10.4 mph - N/A   Scattered Clouds
6:15 AM 83.3 °F 94.5 °F 79.0 °F 87% 29.87 in 10.0 mi SSE 9.2 mph - N/A   Scattered Clouds
6:35 AM 83.3 °F 95.3 °F 79.7 °F 89% 29.88 in 10.0 mi SSE 9.2 mph - N/A   Scattered Clouds
6:55 AM 83.3 °F 95.3 °F 79.9 °F 89% 29.88 in 10.0 mi SSE 10.4 mph - N/A   Scattered Clouds
7:15 AM 83.3 °F 95.3 °F 79.9 °F 89% 29.89 in 10.0 mi SSE 9.2 mph - N/A   Scattered Clouds
7:35 AM 83.1 °F 95.1 °F 80.1 °F 90% 29.89 in 10.0 mi SSE 8.1 mph - N/A   Scattered Clouds
7:55 AM 83.5 °F 96.3 °F 80.4 °F 90% 29.89 in 10.0 mi SSE 6.9 mph - N/A   Clear
8:15 AM 84.2 °F 97.8 °F 80.2 °F 88% 29.90 in 10.0 mi SSE 12.7 mph 16.1 mph N/A   Scattered Clouds
8:35 AM 84.7 °F 96.9 °F 78.8 °F 82% 29.90 in 10.0 mi SSE 8.1 mph - N/A   Clear
8:55 AM 85.5 °F 98.2 °F 78.6 °F 80% 29.91 in 10.0 mi SSE 16.1 mph - N/A   Clear
9:15 AM 86.9 °F 99.9 °F 78.1 °F 75% 29.91 in 10.0 mi SSE 12.7 mph 18.4 mph N/A   Scattered Clouds
9:35 AM 87.3 °F 100.9 °F 78.4 °F 75% 29.92 in 10.0 mi South 15.0 mph - N/A   Scattered Clouds
9:55 AM 88.7 °F 102.2 °F 77.7 °F 70% 29.92 in 10.0 mi SSE 12.7 mph 19.6 mph N/A   Scattered Clouds
10:15 AM 88.5 °F 101.1 °F 77.0 °F 69% 29.93 in 10.0 mi SSE 17.3 mph 24.2 mph N/A   Scattered Clouds
10:35 AM 88.0 °F 100.7 °F 77.4 °F 71% 29.93 in 10.0 mi SSE 15.0 mph 21.9 mph N/A   Scattered Clouds
10:55 AM 88.5 °F 101.6 °F 77.7 °F 70% 29.93 in 10.0 mi SSE 15.0 mph 19.6 mph N/A   Scattered Clouds
11:15 AM 89.6 °F 103.4 °F 77.9 °F 68% 29.93 in 10.0 mi SSE 12.7 mph 23.0 mph N/A   Scattered Clouds
11:35 AM 90.3 °F 105.5 °F 78.3 °F 68% 29.93 in 10.0 mi SSE 16.1 mph 21.9 mph N/A   Scattered Clouds
11:55 AM 90.9 °F 105.7 °F 77.9 °F 66% 29.94 in 10.0 mi SSE 13.8 mph - N/A   Scattered Clouds
12:15 PM 90.9 °F 105.7 °F 77.9 °F 66% 29.93 in 10.0 mi SSE 16.1 mph 21.9 mph N/A   Scattered Clouds
12:35 PM 91.6 °F 105.6 °F 77.2 °F 63% 29.93 in 10.0 mi SSE 16.1 mph 20.7 mph N/A   Scattered Clouds
12:55 PM 91.8 °F 106.1 °F 77.4 °F 63% 29.93 in 10.0 mi South 13.8 mph 21.9 mph N/A   Scattered Clouds
1:15 PM 91.0 °F 104.2 °F 77.0 °F 63% 29.92 in 10.0 mi SE 16.1 mph 21.9 mph N/A   Mostly Cloudy
1:35 PM 91.2 °F 103.3 °F 76.3 °F 61% 29.92 in 10.0 mi SSE 16.1 mph 23.0 mph N/A   Scattered Clouds
1:55 PM 90.9 °F 102.4 °F 75.9 °F 61% 29.91 in 10.0 mi SSE 16.1 mph 21.9 mph N/A   Scattered Clouds
2:15 PM 90.9 °F 102.4 °F 75.7 °F 61% 29.90 in 10.0 mi SSE 15.0 mph 24.2 mph N/A   Scattered Clouds
2:35 PM 91.2 °F 102.7 °F 75.7 °F 60% 29.90 in 10.0 mi South 16.1 mph 21.9 mph N/A   Scattered Clouds
2:55 PM 91.4 °F 103.8 °F 76.1 °F 61% 29.89 in 10.0 mi SSE 12.7 mph 24.2 mph N/A   Clear
3:15 PM 91.4 °F 103.8 °F 76.3 °F 61% 29.88 in 10.0 mi SSE 16.1 mph 21.9 mph N/A   Clear
3:35 PM 91.2 °F 103.3 °F 76.1 °F 61% 29.87 in 10.0 mi SSE 15.0 mph 21.9 mph N/A   Clear
3:55 PM 90.7 °F 102.6 °F 75.9 °F 62% 29.86 in 10.0 mi SE 18.4 mph 24.2 mph N/A   Clear
4:15 PM 90.1 °F 102.4 °F 76.3 °F 64% 29.86 in 10.0 mi SSE 18.4 mph 24.2 mph N/A   Clear
4:35 PM 90.0 °F 101.9 °F 76.5 °F 64% 29.87 in 10.0 mi SE 16.1 mph 21.9 mph N/A   Clear
4:55 PM 89.8 °F 102.1 °F 76.5 °F 65% 29.86 in 10.0 mi SE 18.4 mph 24.2 mph N/A   Clear
5:15 PM 89.1 °F 101.4 °F 76.6 °F 67% 29.86 in 10.0 mi SE 13.8 mph 21.9 mph N/A   Clear
5:35 PM 88.2 °F 99.5 °F 76.3 °F 68% 29.86 in 10.0 mi SE 17.3 mph 21.9 mph N/A   Clear
5:55 PM 87.6 °F 98.7 °F 76.3 °F 69% 29.86 in 10.0 mi SE 16.1 mph 21.9 mph N/A   Clear
6:15 PM 87.1 °F 97.8 °F 76.3 °F 70% 29.86 in 10.0 mi SSE 15.0 mph - N/A   Clear
6:35 PM 86.5 °F 96.9 °F 76.3 °F 71% 29.86 in 10.0 mi SE 15.0 mph 21.9 mph N/A   Clear
6:55 PM 85.6 °F 95.5 °F 75.9 °F 73% 29.87 in 10.0 mi SE 15.0 mph - N/A   Clear
7:15 PM 84.7 °F 94.0 °F 75.9 °F 75% 29.88 in 10.0 mi SSE 11.5 mph - N/A   Clear
7:35 PM 84.2 °F 92.6 °F 75.4 °F 75% 29.89 in 10.0 mi SSE 12.7 mph 19.6 mph N/A   Clear
7:55 PM 84.2 °F 92.6 °F 75.4 °F 75% 29.90 in 10.0 mi SSE 12.7 mph - N/A   Clear
8:15 PM 84.0 °F 92.2 °F 75.4 °F 75% 29.91 in 10.0 mi SE 11.5 mph - N/A   Clear
8:35 PM 83.7 °F 92.0 °F 75.7 °F 77% 29.91 in 10.0 mi SE 13.8 mph 18.4 mph N/A   Clear
8:55 PM 83.5 °F 91.9 °F 75.9 °F 78% 29.91 in 10.0 mi SSE 13.8 mph - N/A   Clear
9:15 PM 83.5 °F 91.9 °F 76.1 °F 78% 29.93 in 10.0 mi SSE 10.4 mph 17.3 mph N/A   Clear
9:35 PM 83.3 °F 91.8 °F 76.1 °F 79% 29.93 in 10.0 mi SE 12.7 mph 18.4 mph N/A   Clear
9:55 PM 83.3 °F 91.8 °F 76.3 °F 79% 29.94 in 10.0 mi SSE 10.4 mph - N/A   Clear
10:15 PM 83.1 °F 91.3 °F 76.1 °F 79% 29.94 in 10.0 mi SE 8.1 mph - N/A   Clear
10:35 PM 82.6 °F 90.2 °F 75.7 °F 80% 29.94 in 10.0 mi SE 9.2 mph - N/A   Clear
10:55 PM 82.8 °F 90.4 °F 75.7 °F 79% 29.95 in 10.0 mi SE 8.1 mph - N/A   Clear
11:15 PM 82.6 °F 89.9 °F 75.6 °F 79% 29.94 in 10.0 mi SE 10.4 mph - N/A   Clear
11:35 PM 82.2 °F 89.6 °F 75.7 °F 81% 29.94 in 10.0 mi SE 8.1 mph - N/A   Clear
11:55 PM 81.9 °F 89.2 °F 76.1 °F 83% 29.93 in 10.0 mi SE 8.1 mph - N/A   Clear